METEOR 1-17 DEB

Satellite information

Favourite Embed

Satellite Type and Status

DEBRISIN ORBIT

Key statistics

Satellite METEOR 1-17 DEB at a glance.

Uptime

18861

Days in orbit

Revolutions

≈ 14.2

Per day

Orbit

LEO

Low Earth Orbit

Inclination

81.2

Latest

Satellite identification and parameters

Extended collection of information and parameters for METEOR 1-17 DEB.

Object identification

Identified? True

Debris? True

Object name: METEOR 1-17 DEB

International designator: 1974-025L

Object number (NORAD): 57545

Object ID (CCSDS): 57545

Country: COMMONWEALTH OF INDEPENDENT STATES (CIS)

Current information (Y/N): Y

RCS size: SMALL

Orbital parameters

Period: 101.302 minutes

Inclination: 81.2185 deg

SMA: 7198.448 km

Apoapsis: 828.433 km

Periapsis: 812.193 km

RAAN: 113.654 deg

Eccentricy: 0.00112806

Argument of periapsis: 46.7177 deg

Mean anomaly: 313.4939 deg

Mean motion: 14.21492129 rev/day

Mean motion (dot): 0.00003535 rev/day2

B* drag term: 0.0016095989 1/REarth

Two-line elements (TLE)

Creation date: Dec. 9, 2025, 1:02 p.m.

Reference frame: TEME

Reference center: EARTH

Epoch: Dec. 9, 2025, 2:35 a.m. UTC

TLE line 0: 0 METEOR 1-17 DEB

TLE line 1: 1 57545U 74025L 25343.10767048 .00003535 00000-0 16096-2 0 9994

TLE line 2: 2 57545 81.2185 113.6540 0011281 46.7177 313.4939 14.21492129 81240

Live tracking on map

Real-time ground track for satellite METEOR 1-17 DEB.

In-orbit conjunctions

A list of the most updated potential collisions computed for object METEOR 1-17 DEB.

Target Orbit TCA Probability of collision Miss distance Type
BLITS SSO 2025-12-04 22:52:49 0.0002111681 95.0 (m) PAYLOAD
THORAD AGENA D DEB SSO 2025-09-16 23:24:09 0.0001419236 153.0 (m) DEBRIS
FENGYUN 1C DEB SSO 2025-08-29 06:35:38 0.000645166 59.0 (m) DEBRIS
FENGYUN 1C DEB SSO 2024-11-14 02:45:20 0.0002887499 477.0 (m) DEBRIS
CZ-6A DEB SSO 2024-11-10 21:34:28 0.0001872528 416.0 (m) DEBRIS

Associated space launch

The Meteor-1 series was the first series of Soviet meteorological satellites.

METEOR 1-17 DEB was lifted into orbit during the mission ‘Vostok 8A92M | Meteor-1 17 (22L)’, on board a Vostok 8A92M space rocket.

The launch took place on April 24, 1974, 11:50 a.m. from 43/4 (43R).

For more information about the launch, click the button.

Launch to space Vostok 8A92M | Meteor-1 17 (22L)
Vostok 8A92M | Meteor-1 17 (22L)

Agency: N/A

Status: Launch Successful

Launch date: April 24, 1974, 11:50 a.m. UTC

Rocket: Vostok 8A92M

Launch pad: 43/4 (43R)

Location: Plesetsk Cosmodrome, Russian Federation

...

Latest news about this satellite

There are no fresh news available about this satellite. Check back as we update our databases every day.


Newsletter sign-up

Weekly statistics, charts and insights to help you stay on top of the space industry.